Regional Weather Roundup
Issued by NWS

Home | Current Version | Previous Version | Graphics & Text | Print | Product List | Glossary On
Versions: 1 2 3 4 5 6 7 8 9 10 11 12 13 14 15 16 17 18 19 20 21 22 23 24 25 26 27 28 29 30 31 32 33 34 35 36 37 38 39 40 41 42 43 44 45 46 47 48 49 50
000
ASUS43 KIND 220809
RWRIN

WEATHER ROUNDUP FOR INDIANA
NATIONAL WEATHER SERVICE INDIANAPOLIS IN
400 AM EDT TUE JUL 22 2014

NOTE: "FAIR" INDICATES FEW OR NO CLOUDS BELOW 12,000 FEET WITH NO
SIGNIFICANT WEATHER AND/OR OBSTRUCTIONS TO VISIBILITY.

* - STATION DOES NOT REPORT WEATHER SUCH AS PRECIPITATION OR FOG.

+ - STATION NOT QUALITY CONTROLLED BY THE NATIONAL WEATHER SERVICE.
    USE DATA WITH CAUTION...ESPECIALLY DEWPOINT AND RELATIVE
    HUMIDITY OBSERVATIONS.

INZ001>003-010>013-019-020-220900-
NORTHWEST INDIANA

CITY           SKY/WX    TMP DP  RH WIND       PRES   REMARKS
GARY /AIRPORT/ CLEAR     67  65  93 CALM      30.07S
KNOX *+        CLEAR     61  58  92 CALM      30.08S
LA PORTE +     PTCLDY    63  63 100 CALM      30.09S FOG
MICHIGAN CITY+ CLEAR     63  63 100 CALM      30.08S FOG
MONTICELLO +   CLEAR     63  63  98 CALM      30.08R FOG
RENSSELAER +   CLEAR     61  61 100 CALM      30.09S FOG
VALPARAISO     CLEAR     66  63  90 S3        30.09S

$$

LMZ046-743>745-220900-
SOUTHERN LAKE MICHIGAN

STATION/POSITION TIME  TEMP WIND        PRES
                       AIR  DIR/SP/G
                 (UTC) (F)  (DEG/KT/KT) (MB)
BURNS HARBOR     0800   70  190/  7/  8 1018.6S
MICHIGAN CITY    0800   73  150/ 10/ 13   N/A

$$

INZ004-005-014>016-021>024-220900-
NORTH CENTRAL INDIANA

CITY           SKY/WX    TMP DP  RH WIND       PRES   REMARKS
GOSHEN         CLEAR     64  62  93 CALM      30.10R FOG
LOGANSPORT +   CLEAR     61  59  94 CALM      30.10R FOG
PERU/GRISSOM   CLEAR     65  65 100 CALM      30.09S
ROCHESTER +    CLEAR     64  63  94 CALM      30.10S
SOUTH BEND     CLEAR     68  61  78 CALM      30.09R
WARSAW +       CLEAR     63  61  94 CALM      30.10R FOG

$$

INZ006>009-017-018-025>027-220900-
NORTHEAST INDIANA

CITY           SKY/WX    TMP DP  RH WIND       PRES   REMARKS
ANGOLA *+      CLEAR     63  61  94 CALM      30.11S
AUBURN +       CLEAR     63  59  88 CALM      30.12R
FORT WAYNE     CLEAR     64  60  87 CALM      30.10S
HUNTINGTON +   CLEAR     65  62  93 CALM      30.09S

$$

INZ028-029-035-036-043>045-051>053-220900-
WEST CENTRAL INDIANA

CITY           SKY/WX    TMP DP  RH WIND       PRES   REMARKS
GREENCASTLE +  CLEAR     63  63 100 CALM      30.10R FOG
LAFAYETTE      PTCLDY    63  63 100 CALM      30.08S FOG
TERRE HAUTE    PTCLDY    63  61  93 CALM      30.09R FOG

$$

INZ030>032-037>040-046>048-054>057-064-065-220900-
CENTRAL INDIANA

CITY           SKY/WX    TMP DP  RH WIND       PRES   REMARKS
CP ATTERBURY +   N/A     61  61 100 CALM      30.10S FOG
GREENWOOD *+   CLEAR     68  66  94 CALM      30.10
INDIANAPOLIS   CLEAR     71  64  78 CALM      30.09S
-EAGLE CREEK   CLEAR     67  64  90 CALM      30.09S FOG
KOKOMO *+      CLEAR     63  61  94 SE3       30.09F
MARION +       CLEAR     60  59  96 CALM      30.11S
MT COMFORT *+  CLEAR     61 N/A N/A CALM      30.10S
SHELBYVILLE    CLEAR     65  61  87 CALM      30.09S
ZIONSVILLE +   CLEAR     63  60  89 CALM      30.10S FOG

$$

INZ033-034-041-042-049-050-058-059-220900-
EAST CENTRAL INDIANA

CITY           SKY/WX    TMP DP  RH WIND       PRES   REMARKS
MUNCIE         CLEAR     63  60  90 CALM      30.10S

$$

INZ060-061-067>069-081>083-085>088-220900-
SOUTHWEST INDIANA

CITY           SKY/WX    TMP DP  RH WIND       PRES   REMARKS
EVANSVILLE     CLEAR     70  66  87 CALM      30.07S FOG
HUNTINGBURG *+ CLEAR     66  64  94 CALM      30.08S
WASHINGTON +   FOG       64  64 100 CALM      30.07S VSB 1/4

$$

INZ062-063-066-070>080-084-089>092-220900-
SOUTH CENTRAL AND SOUTHEAST INDIANA

CITY           SKY/WX    TMP DP  RH WIND       PRES   REMARKS
BLOOMINGTON    FOG       63  61  93 CALM      30.09S VSB 1/2

$$




USA.gov is the U.S. government's official web portal to all federal, state and local government web resources and services.